CARTOSAT-2B

Last updated on Fri Apr 25 2025 00:02:25 GMT+0000 (Coordinated Universal Time)

1 36795U 10035A 25114.41233558 .00001426 00000+0 20067-3 0 9993 2 36795 97.8132 170.4999 0013241 109.9872 250.2767 14.78786264798048
UTC large
Height (km)
Speed (km/s)
/
Latitude / Longitude
Inclination (degrees)
Orbital Period (minutes)
Azimuth
Elevation
Range (km)
Doppler Factor

Next 0 passes for location: London (51.5072 / 0.1276)

Sorry there are no passes over London.